TimeCST,TemperatureF,Dew PointF,Humidity,Sea Level PressureIn,VisibilityMPH,Wind Direction,Wind SpeedMPH,Gust SpeedMPH,PrecipitationIn,Events,Conditions,WindDirDegrees,DateUTC
12:53 AM,34.0,30.9,89,30.45,5.0,Calm,Calm,-,N/A,,Clear,0,2012-11-17 06:53:00
1:53 AM,33.1,30.0,89,30.46,4.0,South,4.6,-,N/A,,Clear,170,2012-11-17 07:53:00
2:53 AM,33.1,30.0,89,30.47,5.0,South,5.8,-,N/A,,Clear,190,2012-11-17 08:53:00
3:53 AM,33.1,28.9,85,30.46,6.0,South,5.8,-,N/A,,Clear,180,2012-11-17 09:53:00
4:53 AM,33.1,28.9,85,30.48,6.0,South,8.1,-,N/A,,Clear,190,2012-11-17 10:53:00
5:53 AM,30.9,28.0,89,30.48,5.0,South,6.9,-,N/A,,Clear,180,2012-11-17 11:53:00
6:53 AM,33.1,28.9,85,30.48,6.0,South,11.5,-,N/A,,Clear,170,2012-11-17 12:53:00
7:53 AM,33.1,28.9,85,30.50,5.0,South,8.1,-,N/A,,Clear,180,2012-11-17 13:53:00
8:53 AM,37.9,32.0,79,30.49,5.0,South,9.2,-,N/A,,Haze,180,2012-11-17 14:53:00
9:53 AM,44.1,33.1,65,30.49,7.0,South,10.4,-,N/A,,Clear,190,2012-11-17 15:53:00
10:53 AM,48.0,34.0,58,30.48,8.0,South,16.1,-,N/A,,Clear,180,2012-11-17 16:53:00
11:53 AM,50.0,35.1,57,30.46,8.0,South,13.8,-,N/A,,Clear,180,2012-11-17 17:53:00
12:53 PM,51.1,34.0,52,30.45,9.0,South,12.7,-,N/A,,Clear,190,2012-11-17 18:53:00
1:53 PM,52.0,34.0,50,30.43,10.0,South,12.7,-,N/A,,Clear,180,2012-11-17 19:53:00
2:53 PM,53.1,33.1,47,30.42,10.0,South,12.7,-,N/A,,Clear,190,2012-11-17 20:53:00
3:53 PM,50.0,34.0,54,30.42,9.0,SSE,11.5,-,N/A,,Clear,150,2012-11-17 21:53:00
4:53 PM,46.9,34.0,61,30.41,8.0,SSE,10.4,-,N/A,,Clear,150,2012-11-17 22:53:00
5:53 PM,43.0,33.1,68,30.41,8.0,SE,12.7,-,N/A,,Clear,140,2012-11-17 23:53:00
6:53 PM,42.1,32.0,67,30.41,8.0,SE,12.7,-,N/A,,Clear,140,2012-11-18 00:53:00
7:53 PM,42.1,30.9,65,30.41,9.0,SSE,12.7,-,N/A,,Clear,150,2012-11-18 01:53:00
8:53 PM,41.0,30.0,65,30.41,9.0,SSE,13.8,-,N/A,,Clear,160,2012-11-18 02:53:00
9:53 PM,39.9,30.9,70,30.40,8.0,SSE,10.4,-,N/A,,Clear,160,2012-11-18 03:53:00
10:53 PM,39.9,30.9,70,30.40,8.0,SSE,11.5,-,N/A,,Clear,160,2012-11-18 04:53:00
11:53 PM,37.9,30.9,76,30.40,7.0,SSE,12.7,-,N/A,,Clear,160,2012-11-18 05:53:00